This demonstration page uses our WeatherBlox Daily Observations layout. Learn more.

Left ArrowRight Arrow

39.51506, -84.39828

Hourly Observations for June 25, 2022

Temp ( °F °C ) Dew Point ( °F °C ) Humidity (%) Winds ( mph kmh ) Pressure ( in mb ) Visibility ( mi km ) Precip ( " mm )
12:15 am 00:15 Clear 62 16.7 61 16 96 96 NNE 3 6 30.05 1018 10 16 0.00 0.00
12:35 am 00:35 Clear 61 16.3 60 15.5 95 95 Calm 30.06 1018 10 16 0.00 0.00
12:55 am 00:55 Clear 62 16.4 60 15.5 94 94 Calm 30.06 1018 10 16 0.00 0.00
1:15 am 01:15 Clear 62 16.9 59 15.1 89 89 N 3 6 30.05 1018 10 16 0.00 0.00
1:35 am 01:35 Clear 61 16 59 15.1 94 94 N 5 7 30.05 1018 10 16 0.00 0.00
1:55 am 01:55 Clear 60 15.3 59 14.8 97 97 NNW 3 6 30.06 1018 10 16 0.00 0.00
2:15 am 02:15 Clear 59 15 57 14 94 94 Calm 30.07 1018 10 16 0.00 0.00
2:35 am 02:35 Clear 59 14.9 58 14.7 99 99 NNE 3 6 30.07 1018 10 16 0.00 0.00
2:55 am 02:55 Clear 59 15 N/A N/A Calm 30.06 1018 10 16 0.00 0.00
3:15 am 03:15 Clear 57 14 N/A N/A NNW 3 6 30.07 1018 10 16 0.00 0.00
3:35 am 03:35 Clear 59 15 N/A N/A Calm 30.07 1018 10 16 0.00 0.00
3:55 am 03:55 Clear 57 14 N/A N/A N 3 6 30.07 1018 10 16 0.00 0.00
4:15 am 04:15 Clear 57 14 N/A N/A Calm 30.07 1018 10 16 0.00 0.00
4:35 am 04:35 Clear 57 14 N/A N/A Calm 30.07 1018 10 16 0.00 0.00
4:55 am 04:55 Clear 57 14 N/A N/A N 5 7 30.07 1018 10 16 0.00 0.00
5:15 am 05:15 Clear 57 14 N/A N/A N 3 6 30.07 1018 10 16 0.00 0.00
5:35 am 05:35 Clear 57 14 N/A N/A NNW 3 6 30.07 1018 10 16 0.00 0.00
5:55 am 05:55 Clear 57 14 N/A N/A Calm 30.08 1019 10 16 0.00 0.00
6:15 am 06:15 Sunny 55 13 N/A N/A N 3 6 30.08 1019 10 16 0.00 0.00
6:35 am 06:35 Sunny 57 14 N/A N/A Calm 30.09 1019 10 16 0.00 0.00
6:55 am 06:55 Sunny 57 14 N/A N/A Calm 30.09 1019 10 16 0.00 0.00
7:15 am 07:15 Sunny 59 15 N/A N/A NNW 3 6 30.09 1019 10 16 0.00 0.00
7:35 am 07:35 Sunny 62 16.7 61 16.3 98 98 Calm 30.08 1019 10 16 0.00 0.00
7:55 am 07:55 Sunny 65 18.2 63 17.4 95 95 Calm 30.09 1019 10 16 0.00 0.00
8:15 am 08:15 Sunny 66 18.9 63 17 89 89 NE 3 6 30.08 1019 10 16 0.00 0.00
8:35 am 08:35 Sunny 68 20.2 62 16.7 80 80 Calm 30.08 1019 10 16 0.00 0.00
8:55 am 08:55 Sunny 71 21.5 60 15.7 70 70 NNE 5 7 30.08 1019 10 16 0.00 0.00
9:15 am 09:15 Sunny 71 21.9 61 16 69 69 NE 5 7 30.07 1018 10 16 0.00 0.00
9:35 am 09:35 Sunny 73 22.7 61 16.3 67 67 NE 6 9 30.08 1019 10 16 0.00 0.00
9:55 am 09:55 Sunny 74 23.6 60 15.8 62 62 N 3 6 30.08 1018 10 16 0.00 0.00
10:15 am 10:15 Sunny 76 24.2 62 16.5 62 62 N 3 6 30.06 1018 10 16 0.00 0.00
10:35 am 10:35 Sunny 78 25.3 63 17.3 61 61 N 5 7 30.06 1018 10 16 0.00 0.00
10:55 am 10:55 Sunny 80 26.5 62 16.7 55 55 NE 3 6 30.06 1018 10 16 0.00 0.00
11:15 am 11:15 Hazy 83 28.6 55 12.9 38 38 SE 7 11 30.04 1017 4 6 0.00 0.00
11:35 am 11:35 Sunny 83 28.5 54 12.3 37 37 SE 8 13 30.06 1018 10 16 0.00 0.00
11:55 am 11:55 Sunny 83 28.5 52 11 34 34 E 5 7 30.06 1018 10 16 0.00 0.00
12:15 pm 12:15 Sunny 85 29.6 54 12.2 34 34 ESE 7 11 30.05 1018 10 16 0.00 0.00
12:35 pm 12:35 Hazy 85 29.6 53 11.4 32 32 E 6 9 30.04 1017 7 11 0.00 0.00
12:55 pm 12:55 Sunny 85 29.6 54 12 34 34 SE 5 7 30.04 1017 10 16 0.00 0.00
1:15 pm 13:15 Sunny 86 30.2 55 12.8 34 34 SSW 8 13 30.05 1018 10 16 0.00 0.00
1:35 pm 13:35 Sunny 86 30 56 13.3 36 36 SSE 5 7 30.04 1017 10 16 0.00 0.00
1:55 pm 13:55 Sunny 87 30.7 55 13 34 34 SW 6 9 30.03 1017 10 16 0.00 0.00
2:15 pm 14:15 Sunny 87 30.3 55 12.8 34 34 S 5 7 30.02 1017 10 16 0.00 0.00
2:35 pm 14:35 Sunny 87 30.5 56 13.5 35 35 WSW 5 7 30.02 1017 10 16 0.00 0.00
2:55 pm 14:55 Sunny 86 30 56 13.4 36 36 Calm 30.02 1017 10 16 0.00 0.00
3:15 pm 15:15 Sunny 86 30.1 56 13.5 36 36 NNW 3 6 30.02 1017 10 16 0.00 0.00
3:35 pm 15:35 Sunny 86 30 57 13.8 37 37 W 3 6 30.02 1017 10 16 0.00 0.00
3:55 pm 15:55 Sunny 87 30.3 57 14.1 37 37 WSW 6 9 30.03 1017 10 16 0.00 0.00
4:15 pm 16:15 Sunny 87 30.6 58 14.4 37 37 WSW 7 11 30.03 1017 10 16 0.00 0.00
4:35 pm 16:35 Sunny 87 30.4 60 15.8 41 41 W 12 19 30.03 1017 10 16 0.00 0.00
4:55 pm 16:55 Sunny 86 30.1 61 15.9 42 42 W 8 13 30.03 1017 10 16 0.00 0.00
5:15 pm 17:15 Sunny 86 30 60 15.6 42 42 WNW 6 9 30.02 1017 10 16 0.00 0.00
5:35 pm 17:35 Sunny 86 29.9 60 15.3 41 41 WNW 5 7 30.01 1016 10 16 0.00 0.00
5:55 pm 17:55 Sunny 85 29.6 59 14.8 41 41 NNW 6 9 29.99 1016 10 16 0.00 0.00
6:15 pm 18:15 Sunny 85 29.3 60 15.8 44 44 Calm 29.99 1016 10 16 0.00 0.00
6:35 pm 18:35 Sunny 85 29.4 59 15 42 42 Calm 29.97 1015 10 16 0.00 0.00
6:55 pm 18:55 Partly Cloudy 85 29.3 59 14.8 41 41 WSW 3 6 29.95 1014 10 16 0.00 0.00
7:15 pm 19:15 Partly Cloudy 85 29.4 60 15.3 42 42 WSW 3 6 29.95 1014 10 16 0.00 0.00
7:35 pm 19:35 Sunny 83 28.4 62 16.9 50 50 S 3 6 29.95 1014 10 16 0.00 0.00
7:55 pm 19:55 Sunny 81 27.3 67 19.7 63 63 WSW 5 7 29.97 1015 10 16 0.00 0.00
8:15 pm 20:15 Sunny 81 27.2 65 18.5 59 59 Calm 29.98 1015 10 16 0.00 0.00
8:35 pm 20:35 Sunny 79 26.2 67 19.7 68 68 Calm 29.99 1016 10 16 0.00 0.00
8:55 pm 20:55 Partly Cloudy 78 25.5 68 20.2 73 73 Calm 30.00 1016 10 16 0.00 0.00
9:15 pm 21:15 Cloudy 77 25.2 69 20.4 75 75 Calm 30.00 1016 10 16 0.00 0.00
9:35 pm 21:35 Cloudy 76 24.5 69 20.5 78 78 Calm 30.00 1016 10 16 0.00 0.00
9:55 pm 21:55 Mostly Cloudy 75 24.1 68 20 78 78 Calm 30.01 1016 10 16 0.00 0.00
10:15 pm 22:15 Partly Cloudy 74 23.3 68 19.9 81 81 Calm 30.01 1016 10 16 0.00 0.00
10:35 pm 22:35 Clear 73 23 67 19.7 82 82 Calm 30.02 1017 10 16 0.00 0.00
10:55 pm 22:55 Clear 73 22.6 68 20 85 85 Calm 30.02 1017 10 16 0.00 0.00
11:15 pm 23:15 Clear 73 22.8 67 19.5 82 82 N 3 6 30.02 1017 10 16 0.00 0.00
11:35 pm 23:35 Clear 73 22.6 69 20.5 88 88 Calm 30.02 1017 10 16 0.00 0.00
11:55 pm 23:55 Clear 71 21.9 68 20.1 90 90 Calm 30.01 1016 10 16 0.00 0.00

Powered by AerisWeather